Location: Newark
(55.7083°N, 13.1992°E)
Time: 22:37:43
(UTC+00:00)

Envisat - Pass Details

Date: 11 October 2022
Orbit: 763 x 765 km, 98.2° (Epoch: 08 December)

Event Time Altitude Azimuth Distance (km) Brightness Sun altitude
Rises 03:55:51 0° 15° (NNE) 3,249 6.6 -14.0°
Reaches altitude 10° 03:58:10 10° 14° (NNE) 2,318 5.8 -13.6°
Maximum altitude 04:03:17 81° 288° (WNW) 782 2.9 -12.9°
Drops below altitude 10° 04:08:22 10° 202° (SSW) 2,301 5.2 -12.2°
Sets 04:10:39 0° 201° (SSW) 3,223 6.0 -11.9°
